Powrót do katalogu

STARLINK-4701

AktywnyŁącznośćVLEO
NORAD 53727·PAYLOAD·🇺🇸 United States

Wystrzelony Sep 5, 2022 z Cape Canaveral Space Force Station

Loading…

Następne Przeloty (najbliższe 24 godziny)

TLE

ŚwieżeSource: CelesTrak SupGP

Epoka: Sep 14, 2026, 20:42 UTC

1 53727C 22107AD  26257.86298611 -.00019728  00000+0 -58305-3 0  2578
2 53727  53.1576 111.7929 0001322  90.0467 142.0884 15.34389820    18

Śledź STARLINK-4701 w czasie rzeczywistym z AllMySat

Download on the App Store